| time (UTC) | temp F | wind direction | speed MPH | gust MPH | rain 1hr in | rain 24hr in | rain mn in | humidity % | barometer mb |
| 20260507165504 | 54 | 246 | 6.0 | 17.0 | 0.00 | 0.00 | 0.00 | 35 | 1012.7 |
| 20260507165002 | 54 | 113 | 3.0 | 10.0 | 0.00 | 0.00 | 0.00 | 35 | 1012.6 |
| 20260507164517 | 53 | 254 | 3.0 | 12.0 | 0.00 | 0.00 | 0.00 | 35 | 1012.8 |
| 20260507164004 | 53 | 76 | 3.0 | 14.0 | 0.00 | 0.00 | 0.00 | 32 | 1012.8 |
| 20260507163503 | 53 | 241 | 6.0 | 14.0 | 0.00 | 0.00 | 0.00 | 35 | 1012.8 |
| 20260507163017 | 52 | 340 | 4.0 | 12.0 | 0.00 | 0.00 | 0.00 | 35 | 1012.8 |
| 20260507162509 | 52 | 328 | 1.0 | 15.0 | 0.00 | 0.00 | 0.00 | 35 | 1012.9 |
| 20260507162003 | 52 | 257 | 8.0 | 15.0 | 0.00 | 0.00 | 0.00 | 38 | 1013.0 |
| 20260507161512 | 51 | 209 | 3.0 | 15.0 | 0.00 | 0.00 | 0.00 | 38 | 1012.9 |
| 20260507161007 | 51 | 300 | 6.0 | 15.0 | 0.00 | 0.00 | 0.00 | 37 | 1013.0 |
| 20260507160504 | 51 | 309 | 5.0 | 12.0 | 0.00 | 0.00 | 0.00 | 35 | 1013.1 |
| 20260507160009 | 51 | 67 | 3.0 | 14.0 | 0.00 | 0.00 | 0.00 | 36 | 1013.0 |
| 20260507155505 | 51 | 317 | 8.0 | 14.0 | 0.00 | 0.00 | 0.00 | 38 | 1013.1 |
| 20260507155003 | 50 | 295 | 7.0 | 14.0 | 0.00 | 0.00 | 0.00 | 36 | 1013.1 |
| 20260507154507 | 50 | 225 | 4.0 | 14.0 | 0.00 | 0.00 | 0.00 | 40 | 1013.1 |
| 20260507154003 | 50 | 298 | 3.0 | 14.0 | 0.00 | 0.00 | 0.00 | 38 | 1013.1 |
| 20260507153506 | 50 | 228 | 3.0 | 8.0 | 0.00 | 0.00 | 0.00 | 38 | 1013.2 |
| 20260507153018 | 50 | 272 | 4.0 | 8.0 | 0.00 | 0.00 | 0.00 | 37 | 1013.1 |
| 20260507152503 | 49 | 250 | 2.0 | 9.0 | 0.00 | 0.00 | 0.00 | 41 | 1013.2 |
| 20260507152007 | 49 | 329 | 3.0 | 9.0 | 0.00 | 0.00 | 0.00 | 40 | 1013.2 |
| 20260507151518 | 49 | 265 | 2.0 | 8.0 | 0.00 | 0.00 | 0.00 | 40 | 1013.1 |
| 20260507151004 | 48 | 348 | 2.0 | 8.0 | 0.00 | 0.00 | 0.00 | 40 | 1013.1 |
| 20260507150503 | 48 | 309 | 2.0 | 7.0 | 0.00 | 0.00 | 0.00 | 40 | 1013.1 |
| 20260507150012 | 48 | 51 | 1.0 | 8.0 | 0.00 | 0.00 | 0.00 | 42 | 1013.1 |
| 20260507145504 | 48 | 249 | 4.0 | 8.0 | 0.00 | 0.00 | 0.00 | 41 | 1013.1 |
| 20260507145003 | 48 | 34 | 2.0 | 7.0 | 0.00 | 0.00 | 0.00 | 45 | 1013.1 |
| 20260507144514 | 47 | 64 | 1.0 | 5.0 | 0.00 | 0.00 | 0.00 | 44 | 1013.1 |
| 20260507144007 | 47 | 117 | 1.0 | 5.0 | 0.00 | 0.00 | 0.00 | 42 | 1013.1 |
| 20260507143511 | 47 | 279 | 1.0 | 8.0 | 0.00 | 0.00 | 0.00 | 45 | 1013.1 |
| 20260507143011 | 46 | 319 | 1.0 | 8.0 | 0.00 | 0.00 | 0.00 | 48 | 1013.2 |
| 20260507142505 | 46 | 282 | 2.0 | 5.0 | 0.00 | 0.00 | 0.00 | 45 | 1013.2 |
| 20260507142009 | 46 | 265 | 2.0 | 5.0 | 0.00 | 0.00 | 0.00 | 49 | 1013.2 |
| 20260507141510 | 45 | 301 | 1.0 | 4.0 | 0.00 | 0.00 | 0.00 | 49 | 1013.3 |
| 20260507141007 | 45 | 296 | 1.0 | 5.0 | 0.00 | 0.00 | 0.00 | 52 | 1013.3 |
| 20260507140503 | 44 | 280 | 2.0 | 5.0 | 0.00 | 0.00 | 0.00 | 51 | 1013.3 |
| 20260507140008 | 44 | 38 | 3.0 | 5.0 | 0.00 | 0.00 | 0.00 | 53 | 1013.3 |
| 20260507135503 | 43 | 325 | 1.0 | 7.0 | 0.00 | 0.00 | 0.00 | 53 | 1013.3 |
| 20260507135006 | 42 | 16 | 2.0 | 8.0 | 0.00 | 0.00 | 0.00 | 56 | 1013.3 |
| 20260507134520 | 41 | 293 | 2.0 | 8.0 | 0.00 | 0.00 | 0.00 | 59 | 1013.4 |
| 20260507134002 | 40 | 20 | 3.0 | 8.0 | 0.00 | 0.00 | 0.00 | 62 | 1013.3 |
| 20260507133507 | 39 | 19 | 1.0 | 4.0 | 0.00 | 0.00 | 0.00 | 65 | 1013.3 |
| 20260507133022 | 38 | 309 | 0.0 | 4.0 | 0.00 | 0.00 | 0.00 | 67 | 1013.5 |
| 20260507132512 | 38 | 323 | 1.0 | 6.0 | 0.00 | 0.00 | 0.00 | 68 | 1013.5 |
| 20260507132008 | 37 | 196 | 2.0 | 5.0 | 0.00 | 0.00 | 0.00 | 69 | 1013.5 |
| 20260507131519 | 37 | 286 | 2.0 | 4.0 | 0.00 | 0.00 | 0.00 | 70 | 1013.5 |
| 20260507131012 | 36 | 273 | 0.0 | 3.0 | 0.00 | 0.00 | 0.00 | 72 | 1013.5 |
| 20260507130505 | 35 | 51 | 0.0 | 3.0 | 0.00 | 0.00 | 0.00 | 73 | 1013.5 |
| 20260507130011 | 35 | 265 | 0.0 | 3.0 | 0.00 | 0.00 | 0.00 | 75 | 1013.5 |
| 20260507125508 | 34 | 314 | 1.0 | 3.0 | 0.00 | 0.00 | 0.00 | 77 | 1013.6 |
| 20260507125005 | 34 | 51 | 0.0 | 3.0 | 0.00 | 0.00 | 0.00 | 79 | 1013.6 |
| 20260507124512 | 33 | 319 | 1.0 | 3.0 | 0.00 | 0.00 | 0.00 | 82 | 1013.5 |
| 20260507124008 | 32 | 9 | 0.0 | 3.0 | 0.00 | 0.00 | 0.00 | 85 | 1013.5 |
| 20260507123510 | 31 | 9 | 1.0 | 3.0 | 0.00 | 0.00 | 0.00 | 87 | 1013.5 |
| 20260507123026 | 30 | 325 | 1.0 | 3.0 | 0.00 | 0.00 | 0.00 | 88 | 1013.5 |
| 20260507122503 | 30 | 301 | 1.0 | 3.0 | 0.00 | 0.00 | 0.00 | 88 | 1013.6 |
| 20260507122009 | 29 | 265 | 0.0 | 2.0 | 0.00 | 0.00 | 0.00 | 88 | 1013.5 |
| 20260507121531 | 28 | 137 | 0.0 | 2.0 | 0.00 | 0.00 | 0.00 | 87 | 1013.6 |
| 20260507121003 | 28 | 9 | 0.0 | 2.0 | 0.00 | 0.00 | 0.00 | 87 | 1013.6 |
| 20260507120504 | 28 | 93 | 0.0 | 2.0 | 0.00 | 0.00 | 0.00 | 86 | 1013.6 |
| 20260507120014 | 28 | 93 | 0.0 | 2.0 | 0.00 | 0.00 | 0.00 | 86 | 1013.6 |
| 20260507115506 | 28 | 93 | 0.0 | 2.0 | 0.00 | 0.00 | 0.00 | 85 | 1013.6 |
| 20260507115007 | 28 | 51 | 0.0 | 1.0 | 0.00 | 0.00 | 0.00 | 85 | 1013.5 |
| 20260507114519 | 28 | 137 | 0.0 | 2.0 | 0.00 | 0.00 | 0.00 | 85 | 1013.5 |
| 20260507114006 | 28 | 146 | 0.0 | 2.0 | 0.00 | 0.00 | 0.00 | 84 | 1013.5 |
| 20260507113507 | 28 | 51 | 0.0 | 2.0 | 0.00 | 0.00 | 0.00 | 84 | 1013.4 |
| 20260507113028 | 28 | 9 | 0.0 | 2.0 | 0.00 | 0.00 | 0.00 | 84 | 1013.5 |
| 20260507112508 | 28 | 291 | 0.0 | 2.0 | 0.00 | 0.00 | 0.00 | 83 | 1013.4 |
| 20260507112012 | 28 | 34 | 1.0 | 2.0 | 0.00 | 0.00 | 0.00 | 83 | 1013.4 |
| 20260507111521 | 28 | 309 | 0.0 | 2.0 | 0.00 | 0.00 | 0.00 | 82 | 1013.4 |
| 20260507111008 | 28 | 298 | 0.0 | 2.0 | 0.00 | 0.00 | 0.00 | 82 | 1013.4 |
| 20260507110509 | 28 | 221 | 0.0 | 2.0 | 0.00 | 0.00 | 0.00 | 82 | 1013.4 |
| 20260507110017 | 28 | 325 | 0.0 | 2.0 | 0.00 | 0.00 | 0.00 | 82 | 1013.4 |
| 20260507105508 | 28 | 51 | 0.0 | 2.0 | 0.00 | 0.00 | 0.00 | 81 | 1013.4 |
| 20260507105007 | 28 | 325 | 0.0 | 2.0 | 0.00 | 0.00 | 0.00 | 81 | 1013.5 |
| 20260507104520 | 28 | 309 | 0.0 | 2.0 | 0.00 | 0.00 | 0.00 | 80 | 1013.4 |
| 20260507104004 | 29 | 298 | 0.0 | 2.0 | 0.00 | 0.00 | 0.00 | 80 | 1013.4 |
| 20260507103508 | 29 | 273 | 1.0 | 2.0 | 0.00 | 0.00 | 0.00 | 79 | 1013.4 |
| 20260507103023 | 29 | 265 | 0.0 | 2.0 | 0.00 | 0.00 | 0.00 | 79 | 1013.5 |
| 20260507102512 | 29 | 265 | 1.0 | 2.0 | 0.00 | 0.00 | 0.00 | 79 | 1013.5 |
| 20260507102007 | 29 | 279 | 1.0 | 3.0 | 0.00 | 0.00 | 0.00 | 78 | 1013.5 |
| 20260507101533 | 29 | 300 | 1.0 | 3.0 | 0.00 | 0.00 | 0.00 | 78 | 1013.5 |
| 20260507101009 | 30 | 298 | 1.0 | 3.0 | 0.00 | 0.00 | 0.00 | 78 | 1013.5 |
| 20260507100503 | 30 | 287 | 1.0 | 2.0 | 0.00 | 0.00 | 0.00 | 77 | 1013.5 |
| 20260507100021 | 30 | 279 | 1.0 | 2.0 | 0.00 | 0.00 | 0.00 | 77 | 1013.5 |
| 20260507095507 | 30 | 265 | 1.0 | 2.0 | 0.00 | 0.00 | 0.00 | 77 | 1013.5 |
| 20260507095008 | 31 | 287 | 1.0 | 2.0 | 0.00 | 0.00 | 0.00 | 77 | 1013.5 |
| 20260507094521 | 31 | 275 | 1.0 | 2.0 | 0.00 | 0.00 | 0.00 | 77 | 1013.5 |
| 20260507094007 | 31 | 265 | 1.0 | 2.0 | 0.00 | 0.00 | 0.00 | 77 | 1013.5 |
| 20260507093507 | 31 | 265 | 1.0 | 2.0 | 0.00 | 0.00 | 0.00 | 78 | 1013.6 |
| 20260507093036 | 31 | 250 | 1.0 | 3.0 | 0.00 | 0.00 | 0.00 | 78 | 1013.6 |
| 20260507092507 | 31 | 247 | 1.0 | 4.0 | 0.00 | 0.00 | 0.00 | 78 | 1013.7 |
| 20260507092007 | 31 | 277 | 2.0 | 5.0 | 0.00 | 0.00 | 0.00 | 78 | 1013.6 |
| 20260507091528 | 31 | 265 | 2.0 | 5.0 | 0.00 | 0.00 | 0.00 | 79 | 1013.6 |
| 20260507091008 | 31 | 248 | 2.0 | 4.0 | 0.00 | 0.00 | 0.00 | 80 | 1013.6 |
| 20260507090508 | 31 | 242 | 1.0 | 4.0 | 0.00 | 0.00 | 0.00 | 80 | 1013.7 |
| 20260507090029 | 31 | 245 | 1.0 | 4.0 | 0.00 | 0.00 | 0.00 | 80 | 1013.7 |
| 20260507085507 | 31 | 245 | 2.0 | 4.0 | 0.00 | 0.00 | 0.00 | 81 | 1013.7 |
| 20260507085009 | 31 | 249 | 2.0 | 4.0 | 0.00 | 0.00 | 0.00 | 81 | 1013.7 |
| 20260507084523 | 31 | 249 | 2.0 | 4.0 | 0.00 | 0.00 | 0.00 | 81 | 1013.7 |
| 20260507084013 | 32 | 236 | 2.0 | 4.0 | 0.00 | 0.00 | 0.00 | 81 | 1013.7 |
| 20260507083507 | 32 | 238 | 2.0 | 4.0 | 0.00 | 0.00 | 0.00 | 81 | 1013.8 |
| 20260507083035 | 32 | 221 | 2.0 | 4.0 | 0.00 | 0.00 | 0.00 | 81 | 1013.8 |
| 20260507082510 | 32 | 265 | 2.0 | 3.0 | 0.00 | 0.00 | 0.00 | 81 | 1013.8 |
| 20260507082009 | 32 | 236 | 1.0 | 3.0 | 0.00 | 0.00 | 0.00 | 81 | 1013.8 |
| 20260507081512 | 32 | 238 | 1.0 | 3.0 | 0.00 | 0.00 | 0.00 | 81 | 1013.8 |
| 20260507081003 | 32 | 255 | 1.0 | 3.0 | 0.00 | 0.00 | 0.00 | 80 | 1013.8 |
| 20260507080504 | 32 | 245 | 2.0 | 3.0 | 0.00 | 0.00 | 0.00 | 80 | 1013.8 |
| 20260507080014 | 33 | 228 | 2.0 | 3.0 | 0.00 | 0.00 | 0.00 | 80 | 1013.8 |
| 20260507075506 | 33 | 221 | 1.0 | 3.0 | 0.00 | 0.00 | 0.00 | 79 | 1013.8 |
| 20260507075004 | 33 | 234 | 1.0 | 4.0 | 0.00 | 0.00 | 0.00 | 79 | 1013.8 |
| 20260507074513 | 33 | 214 | 1.0 | 4.0 | 0.00 | 0.00 | 0.00 | 79 | 1013.9 |
| 20260507074003 | 33 | 232 | 1.0 | 4.0 | 0.00 | 0.00 | 0.00 | 78 | 1014.0 |
| 20260507073503 | 33 | 196 | 1.0 | 4.0 | 0.00 | 0.00 | 0.00 | 77 | 1014.0 |
| 20260507073008 | 33 | 202 | 2.0 | 4.0 | 0.00 | 0.00 | 0.00 | 76 | 1014.1 |
| 20260507072506 | 33 | 247 | 1.0 | 3.0 | 0.00 | 0.00 | 0.00 | 76 | 1014.1 |
| 20260507072006 | 34 | 243 | 1.0 | 4.0 | 0.00 | 0.00 | 0.00 | 76 | 1014.1 |
| 20260507071504 | 34 | 238 | 1.0 | 4.0 | 0.00 | 0.00 | 0.00 | 75 | 1014.2 |
| 20260507071003 | 34 | 215 | 1.0 | 3.0 | 0.00 | 0.00 | 0.00 | 75 | 1014.2 |
| 20260507070507 | 34 | 234 | 1.0 | 3.0 | 0.00 | 0.00 | 0.00 | 75 | 1014.3 |
| 20260507070009 | 34 | 218 | 1.0 | 3.0 | 0.00 | 0.00 | 0.00 | 74 | 1014.3 |
| 20260507065505 | 34 | 241 | 2.0 | 3.0 | 0.00 | 0.00 | 0.00 | 74 | 1014.3 |
| 20260507065005 | 35 | 215 | 2.0 | 4.0 | 0.00 | 0.00 | 0.00 | 72 | 1014.4 |
| 20260507064506 | 35 | 238 | 2.0 | 4.0 | 0.00 | 0.00 | 0.00 | 71 | 1014.4 |
| 20260507064004 | 35 | 230 | 1.0 | 3.0 | 0.00 | 0.00 | 0.00 | 71 | 1014.4 |
| 20260507063504 | 35 | 230 | 1.0 | 4.0 | 0.00 | 0.00 | 0.00 | 71 | 1014.4 |
| 20260507063012 | 36 | 232 | 2.0 | 4.0 | 0.00 | 0.00 | 0.00 | 70 | 1014.4 |
| 20260507062505 | 36 | 225 | 2.0 | 4.0 | 0.00 | 0.00 | 0.00 | 69 | 1014.4 |
| 20260507062005 | 36 | 228 | 2.0 | 3.0 | 0.00 | 0.00 | 0.00 | 69 | 1014.5 |
| 20260507061514 | 36 | 227 | 1.0 | 3.0 | 0.00 | 0.00 | 0.00 | 68 | 1014.5 |
| 20260507061006 | 37 | 238 | 1.0 | 2.0 | 0.00 | 0.00 | 0.00 | 68 | 1014.6 |
| 20260507060504 | 37 | 234 | 1.0 | 2.0 | 0.00 | 0.00 | 0.00 | 68 | 1014.6 |
| 20260507060012 | 37 | 282 | 0.0 | 2.0 | 0.00 | 0.00 | 0.00 | 68 | 1014.7 |
| 20260507055506 | 37 | 238 | 1.0 | 2.0 | 0.00 | 0.00 | 0.00 | 68 | 1014.6 |
| 20260507055005 | 37 | 238 | 1.0 | 3.0 | 0.00 | 0.00 | 0.00 | 69 | 1014.6 |
| 20260507054504 | 37 | 221 | 1.0 | 3.0 | 0.00 | 0.00 | 0.00 | 69 | 1014.6 |
| 20260507054004 | 38 | 232 | 1.0 | 3.0 | 0.00 | 0.00 | 0.00 | 68 | 1014.6 |
| 20260507053503 | 38 | 227 | 1.0 | 2.0 | 0.00 | 0.00 | 0.00 | 68 | 1014.7 |
| 20260507053004 | 38 | 229 | 1.0 | 2.0 | 0.00 | 0.00 | 0.00 | 69 | 1014.7 |
| 20260507052503 | 38 | 265 | 0.0 | 2.0 | 0.00 | 0.00 | 0.00 | 69 | 1014.7 |
| 20260507052006 | 38 | 265 | 0.0 | 2.0 | 0.00 | 0.00 | 0.00 | 69 | 1014.7 |
| 20260507051518 | 38 | 250 | 1.0 | 2.0 | 0.00 | 0.00 | 0.00 | 68 | 1014.8 |
| 20260507051004 | 38 | 238 | 0.0 | 2.0 | 0.00 | 0.00 | 0.00 | 68 | 1014.8 |
| 20260507050504 | 38 | 265 | 1.0 | 2.0 | 0.00 | 0.00 | 0.00 | 68 | 1014.9 |
| 20260507050021 | 38 | 250 | 1.0 | 2.0 | 0.00 | 0.00 | 0.00 | 68 | 1014.8 |
| 20260507045510 | 38 | 265 | 1.0 | 2.0 | 0.00 | 0.00 | 0.00 | 68 | 1014.8 |
| 20260507045004 | 38 | 243 | 1.0 | 2.0 | 0.00 | 0.00 | 0.00 | 67 | 1014.8 |
| 20260507044506 | 38 | 265 | 1.0 | 3.0 | 0.00 | 0.00 | 0.00 | 67 | 1014.9 |
| 20260507044003 | 38 | 265 | 1.0 | 3.0 | 0.00 | 0.00 | 0.00 | 67 | 1014.9 |
| 20260507043503 | 38 | 214 | 1.0 | 3.0 | 0.00 | 0.00 | 0.00 | 67 | 1014.9 |
| 20260507043015 | 38 | 217 | 1.0 | 2.0 | 0.00 | 0.00 | 0.00 | 66 | 1014.9 |
| 20260507042506 | 38 | 205 | 1.0 | 2.0 | 0.00 | 0.00 | 0.00 | 65 | 1014.9 |
| 20260507042009 | 38 | 221 | 1.0 | 2.0 | 0.00 | 0.00 | 0.00 | 65 | 1015.0 |
| 20260507041510 | 38 | 265 | 1.0 | 2.0 | 0.00 | 0.00 | 0.00 | 65 | 1015.0 |
| 20260507041007 | 38 | 221 | 0.0 | 2.0 | 0.00 | 0.00 | 0.00 | 65 | 1015.0 |
| 20260507040507 | 38 | 265 | 1.0 | 2.0 | 0.00 | 0.00 | 0.00 | 65 | 1015.0 |
| 20260507040008 | 38 | 250 | 1.0 | 2.0 | 0.00 | 0.00 | 0.00 | 64 | 1015.1 |
| 20260507035504 | 38 | 265 | 1.0 | 2.0 | 0.00 | 0.00 | 0.00 | 64 | 1015.1 |
| 20260507035007 | 38 | 265 | 1.0 | 2.0 | 0.00 | 0.00 | 0.00 | 65 | 1015.1 |
| 20260507034509 | 38 | 279 | 0.0 | 2.0 | 0.00 | 0.00 | 0.00 | 65 | 1015.1 |
| 20260507034003 | 38 | 265 | 1.0 | 2.0 | 0.00 | 0.00 | 0.00 | 64 | 1015.2 |
| 20260507033505 | 38 | 265 | 1.0 | 2.0 | 0.00 | 0.00 | 0.00 | 64 | 1015.2 |
| 20260507033015 | 38 | 275 | 1.0 | 2.0 | 0.00 | 0.00 | 0.00 | 64 | 1015.2 |
| 20260507032504 | 38 | 265 | 1.0 | 2.0 | 0.00 | 0.00 | 0.00 | 64 | 1015.3 |
| 20260507032005 | 38 | 282 | 1.0 | 2.0 | 0.00 | 0.00 | 0.00 | 65 | 1015.3 |
| 20260507031520 | 38 | 279 | 1.0 | 2.0 | 0.00 | 0.00 | 0.00 | 66 | 1015.3 |
| 20260507031008 | 38 | 279 | 0.0 | 3.0 | 0.00 | 0.00 | 0.00 | 64 | 1015.4 |
| 20260507030502 | 38 | 298 | 1.0 | 3.0 | 0.00 | 0.00 | 0.00 | 62 | 1015.4 |
| 20260507030018 | 38 | 336 | 1.0 | 3.0 | 0.00 | 0.00 | 0.00 | 61 | 1015.5 |
| 20260507025505 | 38 | 301 | 1.0 | 3.0 | 0.00 | 0.00 | 0.00 | 60 | 1015.4 |
| 20260507025009 | 38 | 303 | 1.0 | 3.0 | 0.00 | 0.00 | 0.00 | 60 | 1015.4 |
| 20260507024508 | 38 | 34 | 1.0 | 3.0 | 0.00 | 0.00 | 0.00 | 60 | 1015.4 |
| 20260507024002 | 38 | 301 | 1.0 | 2.0 | 0.00 | 0.00 | 0.00 | 58 | 1015.5 |
| 20260507023505 | 39 | 309 | 1.0 | 2.0 | 0.00 | 0.00 | 0.00 | 57 | 1015.4 |
| 20260507023007 | 39 | 323 | 1.0 | 3.0 | 0.00 | 0.00 | 0.00 | 58 | 1015.4 |
| 20260507022506 | 39 | 291 | 1.0 | 3.0 | 0.00 | 0.00 | 0.00 | 58 | 1015.5 |
| 20260507022005 | 39 | 336 | 1.0 | 3.0 | 0.00 | 0.00 | 0.00 | 57 | 1015.4 |
| 20260507021522 | 39 | 316 | 1.0 | 3.0 | 0.00 | 0.00 | 0.00 | 56 | 1015.5 |
| 20260507021007 | 40 | 330 | 2.0 | 3.0 | 0.00 | 0.00 | 0.00 | 56 | 1015.5 |
| 20260507020506 | 40 | 317 | 1.0 | 4.0 | 0.00 | 0.00 | 0.00 | 56 | 1015.5 |
| 20260507020028 | 40 | 330 | 2.0 | 4.0 | 0.00 | 0.00 | 0.00 | 56 | 1015.4 |
| 20260507015509 | 40 | 313 | 1.0 | 3.0 | 0.00 | 0.00 | 0.00 | 54 | 1015.5 |
| 20260507015006 | 41 | 303 | 1.0 | 4.0 | 0.00 | 0.00 | 0.00 | 53 | 1015.5 |
| 20260507014508 | 41 | 309 | 2.0 | 4.0 | 0.00 | 0.00 | 0.00 | 52 | 1015.4 |
| 20260507014002 | 41 | 309 | 1.0 | 5.0 | 0.00 | 0.00 | 0.00 | 52 | 1015.5 |
| 20260507013503 | 41 | 265 | 1.0 | 6.0 | 0.00 | 0.00 | 0.00 | 52 | 1015.5 |
| 20260507013019 | 41 | 329 | 3.0 | 6.0 | 0.00 | 0.00 | 0.00 | 51 | 1015.5 |
| 20260507012508 | 42 | 293 | 2.0 | 5.0 | 0.00 | 0.00 | 0.00 | 51 | 1015.5 |
| 20260507012012 | 42 | 334 | 2.0 | 7.0 | 0.00 | 0.00 | 0.00 | 52 | 1015.6 |
| 20260507011532 | 42 | 291 | 1.0 | 7.0 | 0.00 | 0.00 | 0.00 | 50 | 1015.6 |
| 20260507011009 | 42 | 325 | 2.0 | 6.0 | 0.00 | 0.00 | 0.00 | 49 | 1015.6 |
| 20260507010509 | 43 | 342 | 2.0 | 8.0 | 0.00 | 0.00 | 0.00 | 49 | 1015.7 |
| 20260507010010 | 43 | 300 | 2.0 | 8.0 | 0.00 | 0.00 | 0.00 | 49 | 1015.7 |
| 20260507005507 | 43 | 300 | 2.0 | 8.0 | 0.00 | 0.00 | 0.00 | 48 | 1015.7 |
| 20260507005006 | 43 | 333 | 3.0 | 10.0 | 0.00 | 0.00 | 0.00 | 48 | 1015.7 |
| 20260507004517 | 44 | 330 | 3.0 | 11.0 | 0.00 | 0.00 | 0.00 | 47 | 1015.7 |
| 20260507004006 | 44 | 309 | 5.0 | 12.0 | 0.00 | 0.00 | 0.00 | 47 | 1015.8 |
| 20260507003508 | 44 | 291 | 8.0 | 12.0 | 0.00 | 0.00 | 0.00 | 46 | 1015.8 |
| 20260507003020 | 44 | 273 | 6.0 | 12.0 | 0.00 | 0.00 | 0.00 | 46 | 1015.8 |
| 20260507002507 | 45 | 315 | 5.0 | 13.0 | 0.00 | 0.00 | 0.00 | 46 | 1015.8 |
| 20260507002009 | 45 | 34 | 7.0 | 13.0 | 0.00 | 0.00 | 0.00 | 46 | 1015.8 |
| 20260507001523 | 45 | 248 | 7.0 | 13.0 | 0.00 | 0.00 | 0.00 | 47 | 1015.9 |
| 20260507001009 | 45 | 311 | 7.0 | 14.0 | 0.00 | 0.00 | 0.00 | 48 | 1015.8 |
| 20260507000506 | 45 | 235 | 7.0 | 14.0 | 0.00 | 0.00 | 0.00 | 46 | 1015.8 |
| 20260507000023 | 45 | 273 | 6.0 | 14.0 | 0.00 | 0.00 | 0.00 | 48 | 1015.8 |
| 20260506235508 | 44 | 298 | 6.0 | 15.0 | 0.00 | 0.00 | 0.00 | 49 | 1015.9 |
| 20260506235010 | 44 | 323 | 8.0 | 15.0 | 0.00 | 0.00 | 0.00 | 48 | 1015.8 |
| 20260506234513 | 44 | 273 | 8.0 | 15.0 | 0.00 | 0.00 | 0.00 | 48 | 1015.9 |
| 20260506234006 | 44 | 293 | 9.0 | 15.0 | 0.00 | 0.00 | 0.00 | 47 | 1015.9 |
| 20260506233507 | 44 | 273 | 7.0 | 13.0 | 0.00 | 0.00 | 0.00 | 48 | 1016.0 |
| 20260506233016 | 44 | 317 | 8.0 | 14.0 | 0.00 | 0.00 | 0.00 | 46 | 1016.0 |
| 20260506232507 | 45 | 273 | 7.0 | 14.0 | 0.00 | 0.00 | 0.00 | 48 | 1016.0 |
| 20260506232011 | 45 | 268 | 6.0 | 13.0 | 0.00 | 0.00 | 0.00 | 48 | 1016.0 |
| 20260506231525 | 45 | 262 | 6.0 | 17.0 | 0.00 | 0.00 | 0.00 | 47 | 1016.0 |
| 20260506231009 | 45 | 297 | 5.0 | 17.0 | 0.00 | 0.00 | 0.00 | 48 | 1016.0 |
| 20260506230506 | 45 | 286 | 9.0 | 20.0 | 0.00 | 0.00 | 0.00 | 47 | 1016.0 |
| 20260506230026 | 45 | 257 | 10.0 | 20.0 | 0.00 | 0.00 | 0.00 | 47 | 1015.9 |
| 20260506225503 | 45 | 303 | 6.0 | 16.0 | 0.00 | 0.00 | 0.00 | 48 | 1016.0 |
| 20260506225008 | 45 | 207 | 8.0 | 17.0 | 0.00 | 0.00 | 0.00 | 47 | 1016.0 |
| 20260506224524 | 45 | 301 | 6.0 | 17.0 | 0.00 | 0.00 | 0.00 | 47 | 1016.1 |
| 20260506224009 | 45 | 305 | 8.0 | 17.0 | 0.00 | 0.00 | 0.00 | 46 | 1016.2 |
| 20260506223507 | 45 | 297 | 9.0 | 20.0 | 0.00 | 0.00 | 0.00 | 47 | 1016.1 |
| 20260506223024 | 45 | 305 | 9.0 | 20.0 | 0.00 | 0.00 | 0.00 | 46 | 1016.1 |
| 20260506222507 | 45 | 315 | 6.0 | 14.0 | 0.00 | 0.00 | 0.00 | 47 | 1016.1 |
| 20260506222010 | 45 | 279 | 7.0 | 17.0 | 0.00 | 0.00 | 0.00 | 47 | 1016.1 |
| 20260506221522 | 46 | 290 | 9.0 | 17.0 | 0.00 | 0.00 | 0.00 | 45 | 1016.1 |
| 20260506221011 | 46 | 317 | 8.0 | 15.0 | 0.00 | 0.00 | 0.00 | 46 | 1016.2 |
| 20260506220509 | 46 | 300 | 9.0 | 14.0 | 0.00 | 0.00 | 0.00 | 47 | 1016.2 |
| 20260506220018 | 46 | 328 | 5.0 | 16.0 | 0.00 | 0.00 | 0.00 | 49 | 1016.2 |
| 20260506215507 | 46 | 316 | 8.0 | 16.0 | 0.00 | 0.00 | 0.00 | 47 | 1016.3 |
| 20260506215007 | 46 | 242 | 6.0 | 14.0 | 0.00 | 0.00 | 0.00 | 51 | 1016.4 |
| 20260506214517 | 45 | 311 | 6.0 | 14.0 | 0.00 | 0.00 | 0.00 | 47 | 1016.3 |
| 20260506214008 | 45 | 287 | 5.0 | 16.0 | 0.00 | 0.00 | 0.00 | 48 | 1016.3 |
| 20260506213508 | 46 | 250 | 7.0 | 17.0 | 0.00 | 0.00 | 0.00 | 48 | 1016.5 |
| 20260506213024 | 46 | 242 | 6.0 | 17.0 | 0.00 | 0.00 | 0.00 | 47 | 1016.5 |
| 20260506212508 | 46 | 248 | 8.0 | 16.0 | 0.00 | 0.00 | 0.00 | 49 | 1016.6 |
| 20260506212008 | 45 | 267 | 7.0 | 17.0 | 0.00 | 0.00 | 0.00 | 49 | 1016.5 |
| 20260506211529 | 45 | 225 | 9.0 | 17.0 | 0.00 | 0.00 | 0.00 | 50 | 1016.6 |
| 20260506211009 | 45 | 255 | 9.0 | 15.0 | 0.00 | 0.00 | 0.00 | 49 | 1016.6 |
| 20260506210506 | 45 | 257 | 8.0 | 12.0 | 0.00 | 0.00 | 0.00 | 50 | 1016.7 |
| 20260506210024 | 45 | 323 | 6.0 | 13.0 | 0.00 | 0.00 | 0.00 | 50 | 1016.7 |
| 20260506205509 | 45 | 287 | 9.0 | 19.0 | 0.00 | 0.00 | 0.00 | 50 | 1016.7 |
| 20260506205006 | 45 | 293 | 9.0 | 19.0 | 0.00 | 0.00 | 0.00 | 49 | 1016.8 |
| 20260506204518 | 44 | 227 | 6.0 | 19.0 | 0.00 | 0.00 | 0.00 | 50 | 1016.8 |
| 20260506204011 | 44 | 245 | 11.0 | 19.0 | 0.00 | 0.00 | 0.00 | 50 | 1016.8 |
| 20260506203508 | 44 | 250 | 5.0 | 17.0 | 0.00 | 0.00 | 0.00 | 53 | 1016.8 |
| 20260506203023 | 44 | 265 | 11.0 | 17.0 | 0.00 | 0.00 | 0.00 | 51 | 1016.8 |
| 20260506202509 | 44 | 262 | 4.0 | 17.0 | 0.00 | 0.00 | 0.00 | 52 | 1016.8 |
| 20260506202011 | 44 | 241 | 10.0 | 17.0 | 0.00 | 0.00 | 0.00 | 52 | 1016.9 |
| 20260506201528 | 44 | 229 | 7.0 | 16.0 | 0.00 | 0.00 | 0.00 | 52 | 1016.8 |
| 20260506201008 | 44 | 266 | 9.0 | 16.0 | 0.00 | 0.00 | 0.00 | 53 | 1016.8 |
| 20260506200504 | 43 | 288 | 6.0 | 14.0 | 0.00 | 0.00 | 0.00 | 54 | 1016.9 |
| 20260506200012 | 43 | 259 | 8.0 | 14.0 | 0.00 | 0.00 | 0.00 | 53 | 1017.0 |
| 20260506195506 | 43 | 259 | 4.0 | 13.0 | 0.00 | 0.00 | 0.00 | 55 | 1017.1 |
| 20260506195007 | 43 | 219 | 8.0 | 13.0 | 0.00 | 0.00 | 0.00 | 54 | 1017.1 |
| 20260506194523 | 43 | 254 | 5.0 | 16.0 | 0.00 | 0.00 | 0.00 | 54 | 1017.1 |
| 20260506194009 | 43 | 247 | 10.0 | 16.0 | 0.00 | 0.00 | 0.00 | 53 | 1017.1 |
| 20260506193508 | 43 | 247 | 8.0 | 17.0 | 0.00 | 0.00 | 0.00 | 53 | 1017.1 |
| 20260506193024 | 43 | 259 | 9.0 | 17.0 | 0.00 | 0.00 | 0.00 | 53 | 1017.0 |
| 20260506192503 | 43 | 257 | 8.0 | 13.0 | 0.00 | 0.00 | 0.00 | 52 | 1017.1 |
| 20260506192009 | 44 | 219 | 7.0 | 13.0 | 0.00 | 0.00 | 0.00 | 52 | 1017.0 |
| 20260506191526 | 43 | 335 | 7.0 | 19.0 | 0.00 | 0.00 | 0.00 | 53 | 1017.1 |
| 20260506191002 | 43 | 250 | 7.0 | 19.0 | 0.00 | 0.00 | 0.00 | 54 | 1017.2 |
| 20260506190508 | 43 | 311 | 10.0 | 19.0 | 0.00 | 0.00 | 0.00 | 54 | 1017.1 |
| 20260506190021 | 43 | 291 | 9.0 | 17.0 | 0.00 | 0.00 | 0.00 | 52 | 1017.1 |
| 20260506185506 | 43 | 282 | 8.0 | 18.0 | 0.00 | 0.00 | 0.00 | 51 | 1017.1 |
| 20260506185006 | 43 | 262 | 11.0 | 18.0 | 0.00 | 0.00 | 0.00 | 53 | 1017.2 |
| 20260506184519 | 43 | 255 | 9.0 | 17.0 | 0.00 | 0.00 | 0.00 | 53 | 1017.2 |
| 20260506184008 | 43 | 277 | 6.0 | 14.0 | 0.00 | 0.00 | 0.00 | 56 | 1017.2 |
| 20260506183510 | 43 | 261 | 6.0 | 15.0 | 0.00 | 0.00 | 0.00 | 53 | 1017.2 |
| 20260506183016 | 43 | 281 | 9.0 | 16.0 | 0.00 | 0.00 | 0.00 | 53 | 1017.2 |
| 20260506182507 | 43 | 307 | 9.0 | 17.0 | 0.00 | 0.00 | 0.00 | 54 | 1017.2 |
| 20260506182014 | 42 | 240 | 8.0 | 17.0 | 0.00 | 0.00 | 0.00 | 54 | 1017.1 |
| 20260506181512 | 42 | 259 | 8.0 | 14.0 | 0.00 | 0.00 | 0.00 | 54 | 1017.2 |
| 20260506181004 | 42 | 273 | 6.0 | 14.0 | 0.00 | 0.00 | 0.00 | 54 | 1017.2 |
| 20260506180506 | 42 | 298 | 8.0 | 17.0 | 0.00 | 0.00 | 0.00 | 53 | 1017.2 |
| 20260506180021 | 42 | 245 | 8.0 | 17.0 | 0.00 | 0.00 | 0.00 | 52 | 1017.2 |
| 20260506175503 | 42 | 269 | 6.0 | 16.0 | 0.00 | 0.00 | 0.00 | 53 | 1017.2 |
| 20260506175008 | 42 | 219 | 6.0 | 16.0 | 0.00 | 0.00 | 0.00 | 54 | 1017.2 |
| 20260506174523 | 42 | 280 | 9.0 | 16.0 | 0.00 | 0.00 | 0.00 | 55 | 1017.2 |
| 20260506174007 | 41 | 236 | 9.0 | 16.0 | 0.00 | 0.00 | 0.00 | 56 | 1017.4 |
| 20260506173508 | 41 | 304 | 5.0 | 12.0 | 0.00 | 0.00 | 0.00 | 58 | 1017.4 |
| 20260506173027 | 40 | 298 | 5.0 | 17.0 | 0.00 | 0.00 | 0.00 | 57 | 1017.4 |
| 20260506172507 | 40 | 247 | 8.0 | 17.0 | 0.00 | 0.00 | 0.00 | 56 | 1017.4 |
| 20260506172007 | 40 | 268 | 7.0 | 16.0 | 0.00 | 0.00 | 0.00 | 55 | 1017.5 |
| 20260506171524 | 40 | 270 | 8.0 | 17.0 | 0.00 | 0.00 | 0.00 | 55 | 1017.5 |
| 20260506171007 | 40 | 334 | 9.0 | 18.0 | 0.00 | 0.00 | 0.00 | 55 | 1017.5 |
| 20260506170504 | 40 | 279 | 10.0 | 18.0 | 0.00 | 0.00 | 0.00 | 55 | 1017.5 |
| 20260506170016 | 40 | 248 | 10.0 | 17.0 | 0.00 | 0.00 | 0.00 | 55 | 1017.5 |